Time,TemperatureF,DewpointF,PressureIn,WindDirection,WindDirectionDegrees,WindSpeedMPH,WindSpeedGustMPH,Humidity,HourlyPrecipIn,Conditions,Clouds,dailyrainin,SolarRadiationWatts/m^2,SoftwareType,DateUTC
2013-06-21 00:01:00,67.6,63.9,30.11,NW,316,0.0,0.0,88,0.00,,---,0.00,0.00,VWS V14.01,2013-06-21 04:01:00,
2013-06-21 00:02:00,67.6,63.9,30.11,NW,316,0.0,0.0,88,0.00,,---,0.00,0.00,VWS V14.01,2013-06-21 04:02:00,
2013-06-21 00:06:00,67.4,63.7,30.11,NW,316,0.0,0.0,88,0.00,,---,0.00,0.00,VWS V14.01,2013-06-21 04:06:00,
2013-06-21 00:11:00,67.4,64.1,30.12,NW,316,0.0,0.0,89,0.00,,---,0.00,0.00,VWS V14.01,2013-06-21 04:11:00,
2013-06-21 00:16:00,67.4,64.1,30.12,NW,316,0.0,0.0,89,0.00,,---,0.00,0.00,VWS V14.01,2013-06-21 04:16:00,
2013-06-21 00:21:00,67.4,64.1,30.12,NW,316,0.0,0.0,89,0.00,,---,0.00,0.00,VWS V14.01,2013-06-21 04:21:00,
2013-06-21 00:26:00,67.4,64.4,30.12,NW,316,0.0,0.0,90,0.00,,---,0.00,0.00,VWS V14.01,2013-06-21 04:26:00,
2013-06-21 00:31:00,67.5,64.2,30.12,NW,316,0.0,0.0,89,0.00,,---,0.00,0.00,VWS V14.01,2013-06-21 04:31:00,
2013-06-21 00:37:00,67.5,64.2,30.12,NW,316,0.0,0.0,89,0.00,,---,0.00,0.00,VWS V14.01,2013-06-21 04:37:00,
2013-06-21 00:42:00,67.5,64.5,30.12,NW,316,0.0,0.0,90,0.00,,---,0.00,0.00,VWS V14.01,2013-06-21 04:42:00,
2013-06-21 00:47:00,67.4,64.4,30.12,NW,316,0.0,0.0,90,0.00,,---,0.00,0.00,VWS V14.01,2013-06-21 04:47:00,
2013-06-21 00:52:00,67.3,64.3,30.12,NW,316,0.0,0.0,90,0.00,,---,0.00,0.00,VWS V14.01,2013-06-21 04:52:00,
2013-06-21 00:57:00,67.2,64.2,30.12,NW,316,0.0,0.0,90,0.00,,---,0.00,0.00,VWS V14.01,2013-06-21 04:57:00,
2013-06-21 01:02:00,67.1,64.1,30.12,NW,316,0.0,0.0,90,0.00,,---,0.00,0.00,VWS V14.01,2013-06-21 05:02:00,
2013-06-21 01:07:00,67.0,64.0,30.12,NW,316,0.0,0.0,90,0.00,,---,0.00,0.00,VWS V14.01,2013-06-21 05:07:00,
2013-06-21 01:12:00,67.0,64.0,30.12,NW,316,0.0,0.0,90,0.00,,---,0.00,0.00,VWS V14.01,2013-06-21 05:12:00,
2013-06-21 01:17:00,66.9,63.9,30.11,NW,316,0.0,0.0,90,0.00,,---,0.00,0.00,VWS V14.01,2013-06-21 05:17:00,
2013-06-21 01:22:00,66.7,63.7,30.11,NW,316,0.0,0.0,90,0.00,,---,0.00,0.00,VWS V14.01,2013-06-21 05:22:00,
2013-06-21 01:27:00,66.6,63.6,30.11,NW,316,0.0,0.0,90,0.00,,---,0.00,0.00,VWS V14.01,2013-06-21 05:27:00,
2013-06-21 01:33:00,66.5,63.5,30.11,NW,316,0.0,1.0,90,0.00,,---,0.00,0.00,VWS V14.01,2013-06-21 05:33:00,
2013-06-21 01:38:00,66.5,63.5,30.11,NW,316,0.0,1.0,90,0.00,,---,0.00,0.00,VWS V14.01,2013-06-21 05:38:00,
2013-06-21 01:43:00,66.3,63.6,30.12,NW,316,0.0,0.0,91,0.00,,---,0.00,0.00,VWS V14.01,2013-06-21 05:43:00,
2013-06-21 01:48:00,66.2,63.5,30.12,NW,316,0.0,0.0,91,0.00,,---,0.00,0.00,VWS V14.01,2013-06-21 05:48:00,
2013-06-21 01:53:00,66.2,63.5,30.12,NW,316,0.0,0.0,91,0.00,,---,0.00,0.00,VWS V14.01,2013-06-21 05:53:00,
2013-06-21 01:58:00,66.3,63.3,30.12,NW,316,0.0,0.0,90,0.00,,---,0.00,0.00,VWS V14.01,2013-06-21 05:58:00,
2013-06-21 02:03:00,66.3,63.6,30.12,NW,317,0.0,0.0,91,0.00,,---,0.00,0.00,VWS V14.01,2013-06-21 06:03:00,
2013-06-21 02:08:00,66.2,63.5,30.12,NW,317,0.0,0.0,91,0.00,,---,0.00,0.00,VWS V14.01,2013-06-21 06:08:00,
2013-06-21 02:13:00,66.2,63.5,30.12,NW,317,0.0,0.0,91,0.00,,---,0.00,0.00,VWS V14.01,2013-06-21 06:13:00,
2013-06-21 02:18:00,66.1,63.4,30.12,NW,317,0.0,0.0,91,0.00,,---,0.00,0.00,VWS V14.01,2013-06-21 06:18:00,
2013-06-21 02:23:00,66.0,63.3,30.12,NW,317,0.0,0.0,91,0.00,,---,0.00,0.00,VWS V14.01,2013-06-21 06:23:00,
2013-06-21 02:29:00,65.8,63.1,30.11,NW,317,0.0,0.0,91,0.00,,---,0.00,0.00,VWS V14.01,2013-06-21 06:29:00,
2013-06-21 02:34:00,65.7,63.0,30.12,NW,317,0.0,0.0,91,0.00,,---,0.00,0.00,VWS V14.01,2013-06-21 06:34:00,
2013-06-21 02:39:00,65.5,63.1,30.11,NW,317,0.0,0.0,92,0.00,,---,0.00,0.00,VWS V14.01,2013-06-21 06:39:00,
2013-06-21 02:44:00,65.4,63.0,30.11,NW,317,0.0,0.0,92,0.00,,---,0.00,0.00,VWS V14.01,2013-06-21 06:44:00,
2013-06-21 02:49:00,65.3,62.9,30.11,NW,317,0.0,0.0,92,0.00,,---,0.00,0.00,VWS V14.01,2013-06-21 06:49:00,
2013-06-21 02:54:00,65.3,62.9,30.11,NW,317,0.0,0.0,92,0.00,,---,0.00,0.00,VWS V14.01,2013-06-21 06:54:00,
2013-06-21 02:59:00,65.2,62.8,30.11,NW,317,0.0,0.0,92,0.00,,---,0.00,0.00,VWS V14.01,2013-06-21 06:59:00,
2013-06-21 03:04:00,65.0,62.6,30.11,NW,317,0.0,0.0,92,0.00,,---,0.00,0.00,VWS V14.01,2013-06-21 07:04:00,
2013-06-21 03:09:00,64.8,62.4,30.11,NW,317,0.0,0.0,92,0.00,,---,0.00,0.00,VWS V14.01,2013-06-21 07:09:00,
2013-06-21 03:14:00,64.6,62.2,30.11,NW,317,0.0,0.0,92,0.00,,---,0.00,0.00,VWS V14.01,2013-06-21 07:14:00,
2013-06-21 03:20:00,64.4,62.3,30.11,NW,317,0.0,0.0,93,0.00,,---,0.00,0.00,VWS V14.01,2013-06-21 07:20:00,
2013-06-21 03:25:00,64.3,62.2,30.11,NW,317,1.0,1.0,93,0.00,,---,0.00,0.00,VWS V14.01,2013-06-21 07:25:00,
2013-06-21 03:30:00,64.4,62.6,30.11,NW,317,0.0,0.0,94,0.00,,---,0.00,0.00,VWS V14.01,2013-06-21 07:30:00,
2013-06-21 03:35:00,64.5,62.4,30.11,NW,317,0.0,0.0,93,0.00,,---,0.00,0.00,VWS V14.01,2013-06-21 07:35:00,
2013-06-21 03:40:00,64.4,62.3,30.11,NW,317,0.0,0.0,93,0.00,,---,0.00,0.00,VWS V14.01,2013-06-21 07:40:00,
2013-06-21 03:45:00,64.4,62.3,30.11,NW,317,0.0,0.0,93,0.00,,---,0.00,0.00,VWS V14.01,2013-06-21 07:45:00,
2013-06-21 03:50:00,64.3,62.2,30.11,NW,317,0.0,0.0,93,0.00,,---,0.00,0.00,VWS V14.01,2013-06-21 07:50:00,
2013-06-21 03:55:00,64.3,62.2,30.11,NW,317,0.0,0.0,93,0.00,,---,0.00,0.00,VWS V14.01,2013-06-21 07:55:00,
2013-06-21 04:00:00,64.1,62.0,30.11,NW,317,0.0,0.0,93,0.00,,---,0.00,0.00,VWS V14.01,2013-06-21 08:00:00,
2013-06-21 04:05:00,64.0,61.9,30.11,NW,317,0.0,0.0,93,0.00,,---,0.00,0.00,VWS V14.01,2013-06-21 08:05:00,
2013-06-21 04:10:00,64.0,62.2,30.11,NW,317,0.0,0.0,94,0.00,,---,0.00,0.00,VWS V14.01,2013-06-21 08:10:00,
2013-06-21 04:16:00,64.0,62.2,30.11,NW,317,0.0,0.0,94,0.00,,---,0.00,0.00,VWS V14.01,2013-06-21 08:16:00,
2013-06-21 04:21:00,64.0,62.5,30.11,NW,317,0.0,0.0,95,0.00,,---,0.00,0.00,VWS V14.01,2013-06-21 08:21:00,
2013-06-21 04:26:00,64.1,62.6,30.11,NW,317,0.0,0.0,95,0.00,,---,0.00,0.00,VWS V14.01,2013-06-21 08:26:00,
2013-06-21 04:31:00,64.2,62.7,30.11,NW,317,0.0,0.0,95,0.00,,---,0.00,0.00,VWS V14.01,2013-06-21 08:31:00,
2013-06-21 04:36:00,64.4,62.6,30.11,NW,317,0.0,1.0,94,0.00,,---,0.00,0.00,VWS V14.01,2013-06-21 08:36:00,
2013-06-21 04:41:00,64.5,62.7,30.11,NW,317,0.0,0.0,94,0.00,,---,0.00,0.00,VWS V14.01,2013-06-21 08:41:00,
2013-06-21 04:46:00,64.6,62.8,30.12,NW,317,0.0,0.0,94,0.00,,---,0.00,0.00,VWS V14.01,2013-06-21 08:46:00,
2013-06-21 04:51:00,64.6,62.8,30.12,NW,317,0.0,0.0,94,0.00,,---,0.00,0.00,VWS V14.01,2013-06-21 08:51:00,
2013-06-21 04:56:00,64.5,62.7,30.12,NW,317,0.0,0.0,94,0.00,,---,0.00,0.00,VWS V14.01,2013-06-21 08:56:00,
2013-06-21 05:01:00,64.5,62.7,30.12,NW,317,0.0,0.0,94,0.00,,---,0.00,0.00,VWS V14.01,2013-06-21 09:01:00,
2013-06-21 05:07:00,64.4,62.3,30.12,NW,317,0.0,0.0,93,0.00,,---,0.00,0.00,VWS V14.01,2013-06-21 09:07:00,
2013-06-21 05:12:00,64.4,62.3,30.12,NW,317,0.0,0.0,93,0.00,,---,0.00,0.00,VWS V14.01,2013-06-21 09:12:00,
2013-06-21 05:17:00,64.2,62.1,30.12,NW,317,0.0,0.0,93,0.00,,---,0.00,0.00,VWS V14.01,2013-06-21 09:17:00,
2013-06-21 05:22:00,64.1,62.0,30.13,NW,317,0.0,0.0,93,0.00,,---,0.00,0.00,VWS V14.01,2013-06-21 09:22:00,
2013-06-21 05:27:00,63.9,61.8,30.13,NW,317,0.0,0.0,93,0.00,,---,0.00,0.00,VWS V14.01,2013-06-21 09:27:00,
2013-06-21 05:32:00,63.8,61.7,30.13,NW,317,0.0,0.0,93,0.00,,---,0.00,0.00,VWS V14.01,2013-06-21 09:32:00,
2013-06-21 05:37:00,63.7,62.0,30.13,NW,317,0.0,0.0,94,0.00,,---,0.00,0.00,VWS V14.01,2013-06-21 09:37:00,
2013-06-21 05:42:00,63.7,62.0,30.13,NW,317,0.0,0.0,94,0.00,,---,0.00,0.00,VWS V14.01,2013-06-21 09:42:00,
2013-06-21 05:47:00,63.6,61.8,30.13,NW,317,0.0,0.0,94,0.00,,---,0.00,0.00,VWS V14.01,2013-06-21 09:47:00,
2013-06-21 05:52:00,63.5,61.8,30.13,NW,317,0.0,0.0,94,0.00,,---,0.00,0.00,VWS V14.01,2013-06-21 09:52:00,
2013-06-21 05:57:00,63.4,61.7,30.13,NW,317,0.0,0.0,94,0.00,,---,0.00,0.00,VWS V14.01,2013-06-21 09:57:00,
2013-06-21 06:03:00,63.3,61.5,30.14,NW,317,0.0,0.0,94,0.00,,---,0.00,0.00,VWS V14.01,2013-06-21 10:03:00,
2013-06-21 06:08:00,63.3,61.5,30.14,NW,318,0.0,0.0,94,0.00,,---,0.00,0.00,VWS V14.01,2013-06-21 10:08:00,
2013-06-21 06:13:00,63.2,61.8,30.14,NW,318,0.0,0.0,95,0.00,,---,0.00,0.00,VWS V14.01,2013-06-21 10:13:00,
2013-06-21 06:18:00,63.2,61.8,30.13,NW,318,0.0,0.0,95,0.00,,---,0.00,5.00,VWS V14.01,2013-06-21 10:18:00,
2013-06-21 06:23:00,63.1,61.7,30.14,NW,318,0.0,0.0,95,0.00,,---,0.00,7.00,VWS V14.01,2013-06-21 10:23:00,
2013-06-21 06:28:00,63.1,61.7,30.14,NW,318,0.0,0.0,95,0.00,,---,0.00,9.00,VWS V14.01,2013-06-21 10:28:00,
2013-06-21 06:33:00,63.0,61.5,30.14,NW,318,0.0,0.0,95,0.00,,---,0.00,9.00,VWS V14.01,2013-06-21 10:33:00,
2013-06-21 06:38:00,63.0,61.5,30.14,NW,318,0.0,0.0,95,0.00,,---,0.00,12.00,VWS V14.01,2013-06-21 10:38:00,
2013-06-21 06:43:00,63.1,61.7,30.14,NW,318,0.0,0.0,95,0.00,,---,0.00,14.00,VWS V14.01,2013-06-21 10:43:00,
2013-06-21 06:48:00,63.0,61.5,30.13,NW,318,0.0,0.0,95,0.00,,---,0.00,16.00,VWS V14.01,2013-06-21 10:48:00,
2013-06-21 06:53:00,63.1,61.9,30.13,NW,318,0.0,0.0,96,0.00,,---,0.00,21.00,VWS V14.01,2013-06-21 10:53:00,
2013-06-21 06:59:00,63.2,62.0,30.14,NW,318,0.0,0.0,96,0.00,,---,0.00,25.00,VWS V14.01,2013-06-21 10:59:00,
2013-06-21 07:04:00,63.3,62.1,30.14,NW,318,0.0,0.0,96,0.00,,---,0.00,28.00,VWS V14.01,2013-06-21 11:04:00,
2013-06-21 07:09:00,63.5,62.3,30.14,NW,318,0.0,0.0,96,0.00,,---,0.00,33.00,VWS V14.01,2013-06-21 11:09:00,
2013-06-21 07:14:00,63.6,62.4,30.14,NW,318,0.0,0.0,96,0.00,,---,0.00,39.00,VWS V14.01,2013-06-21 11:14:00,
2013-06-21 07:19:00,63.9,62.7,30.14,NW,318,0.0,0.0,96,0.00,,---,0.00,39.00,VWS V14.01,2013-06-21 11:19:00,
2013-06-21 07:24:00,64.1,62.9,30.14,NW,318,0.0,0.0,96,0.00,,---,0.00,39.00,VWS V14.01,2013-06-21 11:24:00,
2013-06-21 07:29:00,64.2,63.0,30.14,NW,318,0.0,0.0,96,0.00,,---,0.00,37.00,VWS V14.01,2013-06-21 11:29:00,
2013-06-21 07:34:00,64.3,63.1,30.14,NW,318,0.0,0.0,96,0.00,,---,0.00,42.00,VWS V14.01,2013-06-21 11:34:00,
2013-06-21 07:39:00,64.5,63.3,30.15,NW,318,0.0,0.0,96,0.00,,---,0.00,49.00,VWS V14.01,2013-06-21 11:39:00,
2013-06-21 07:44:00,64.8,63.6,30.14,NW,318,0.0,0.0,96,0.00,,---,0.00,56.00,VWS V14.01,2013-06-21 11:44:00,
2013-06-21 07:50:00,65.1,63.9,30.15,NW,318,0.0,1.0,96,0.00,,---,0.00,69.00,VWS V14.01,2013-06-21 11:50:00,
2013-06-21 07:55:00,65.5,64.0,30.15,NW,318,0.0,1.0,95,0.00,,---,0.00,93.00,VWS V14.01,2013-06-21 11:55:00,
2013-06-21 08:00:00,66.0,64.5,30.15,NW,318,0.0,0.0,95,0.00,,---,0.00,93.00,VWS V14.01,2013-06-21 12:00:00,
2013-06-21 08:05:00,66.5,65.0,30.15,NW,319,0.0,1.0,95,0.00,,---,0.00,81.00,VWS V14.01,2013-06-21 12:05:00,
2013-06-21 08:10:00,66.6,64.5,30.15,NW,319,0.0,0.0,93,0.00,,---,0.00,109.00,VWS V14.01,2013-06-21 12:10:00,
2013-06-21 08:15:00,66.8,64.4,30.15,NE,56,0.0,3.0,92,0.00,,---,0.00,118.00,VWS V14.01,2013-06-21 12:15:00,
2013-06-21 08:20:00,66.9,64.5,30.15,NE,56,0.0,0.0,92,0.00,,---,0.00,113.00,VWS V14.01,2013-06-21 12:20:00,
2013-06-21 08:25:00,67.1,64.7,30.15,NE,56,0.0,1.0,92,0.00,,---,0.00,132.00,VWS V14.01,2013-06-21 12:25:00,
2013-06-21 08:30:00,67.3,65.2,30.15,NE,56,0.0,2.0,93,0.00,,---,0.00,134.00,VWS V14.01,2013-06-21 12:30:00,
2013-06-21 08:36:00,67.5,65.1,30.15,NE,56,0.0,2.0,92,0.00,,---,0.00,123.00,VWS V14.01,2013-06-21 12:36:00,
2013-06-21 08:41:00,67.6,65.2,30.15,NE,56,0.0,1.0,92,0.00,,---,0.00,97.00,VWS V14.01,2013-06-21 12:41:00,
2013-06-21 08:46:00,67.7,65.3,30.16,NE,56,0.0,1.0,92,0.00,,---,0.00,90.00,VWS V14.01,2013-06-21 12:46:00,
2013-06-21 08:51:00,67.8,65.4,30.16,NE,56,0.0,0.0,92,0.00,,---,0.00,86.00,VWS V14.01,2013-06-21 12:51:00,
2013-06-21 08:56:00,67.9,65.5,30.16,NE,56,0.0,0.0,92,0.00,,---,0.00,84.00,VWS V14.01,2013-06-21 12:56:00,
2013-06-21 09:01:00,68.0,65.6,30.16,NE,56,0.0,0.0,92,0.00,,---,0.00,104.00,VWS V14.01,2013-06-21 13:01:00,
2013-06-21 09:06:00,68.2,65.8,30.16,NE,56,0.0,1.0,92,0.00,,---,0.00,253.00,VWS V14.01,2013-06-21 13:06:00,
2013-06-21 09:12:00,68.4,65.7,30.15,NE,56,0.0,1.0,91,0.00,,---,0.00,146.00,VWS V14.01,2013-06-21 13:12:00,
2013-06-21 09:17:00,68.7,66.0,30.16,NE,56,0.0,2.0,91,0.00,,---,0.00,216.00,VWS V14.01,2013-06-21 13:17:00,
2013-06-21 09:22:00,69.3,66.9,30.16,North,11,0.0,3.0,92,0.00,,---,0.00,462.00,VWS V14.01,2013-06-21 13:22:00,
2013-06-21 09:27:00,70.1,66.7,30.16,North,11,0.0,3.0,89,0.00,,---,0.00,478.00,VWS V14.01,2013-06-21 13:27:00,
2013-06-21 09:32:00,70.9,67.5,30.16,NE,38,0.0,2.0,89,0.00,,---,0.00,214.00,VWS V14.01,2013-06-21 13:32:00,
2013-06-21 09:37:00,71.5,67.4,30.16,NE,38,0.0,2.0,87,0.00,,---,0.00,446.00,VWS V14.01,2013-06-21 13:37:00,
2013-06-21 09:42:00,72.1,67.3,30.16,NNE,28,0.0,2.0,85,0.00,,---,0.00,364.00,VWS V14.01,2013-06-21 13:42:00,
2013-06-21 09:47:00,72.7,67.6,30.16,NNE,25,1.0,3.0,84,0.00,,---,0.00,362.00,VWS V14.01,2013-06-21 13:47:00,
2013-06-21 09:52:00,73.1,67.3,30.16,NE,34,0.0,2.0,82,0.00,,---,0.00,285.00,VWS V14.01,2013-06-21 13:52:00,
2013-06-21 09:57:00,73.1,67.6,30.16,NNE,30,0.0,3.0,83,0.00,,---,0.00,355.00,VWS V14.01,2013-06-21 13:57:00,
2013-06-21 10:02:00,73.3,67.1,30.16,NNE,22,0.0,3.0,81,0.00,,---,0.00,468.00,VWS V14.01,2013-06-21 14:02:00,
2013-06-21 10:08:00,73.4,67.6,30.16,NNE,32,0.0,4.0,82,0.00,,---,0.00,241.00,VWS V14.01,2013-06-21 14:08:00,
2013-06-21 10:13:00,73.3,67.1,30.15,NNE,32,0.0,2.0,81,0.00,,---,0.00,656.00,VWS V14.01,2013-06-21 14:13:00,
2013-06-21 10:18:00,73.5,68.0,30.15,NNE,32,1.0,2.0,83,0.00,,---,0.00,629.00,VWS V14.01,2013-06-21 14:18:00,
2013-06-21 10:23:00,74.1,68.6,30.15,NNE,32,1.0,2.0,83,0.00,,---,0.00,661.00,VWS V14.01,2013-06-21 14:23:00,
2013-06-21 10:28:00,74.7,68.5,30.15,NW,319,0.0,3.0,81,0.00,,---,0.00,673.00,VWS V14.01,2013-06-21 14:28:00,
2013-06-21 10:33:00,75.4,68.4,30.15,NNE,17,1.0,3.0,79,0.00,,---,0.00,461.00,VWS V14.01,2013-06-21 14:33:00,
2013-06-21 10:38:00,75.8,68.8,30.16,NNE,32,3.0,3.0,79,0.00,,---,0.00,717.00,VWS V14.01,2013-06-21 14:38:00,
2013-06-21 10:43:00,76.2,68.8,30.15,NNE,15,0.0,3.0,78,0.00,,---,0.00,557.00,VWS V14.01,2013-06-21 14:43:00,
2013-06-21 10:48:00,76.3,67.4,30.16,NNE,15,0.0,3.0,74,0.00,,---,0.00,747.00,VWS V14.01,2013-06-21 14:48:00,
2013-06-21 10:54:00,76.3,68.2,30.16,NNE,19,0.0,3.0,76,0.00,,---,0.00,765.00,VWS V14.01,2013-06-21 14:54:00,
2013-06-21 10:59:00,76.6,69.2,30.16,NE,43,1.0,2.0,78,0.00,,---,0.00,512.00,VWS V14.01,2013-06-21 14:59:00,
2013-06-21 11:04:00,76.5,67.2,30.16,North,360,2.0,4.0,73,0.00,,---,0.00,490.00,VWS V14.01,2013-06-21 15:04:00,
2013-06-21 11:09:00,76.2,67.7,30.16,NNE,22,0.0,2.0,75,0.00,,---,0.00,770.00,VWS V14.01,2013-06-21 15:09:00,
2013-06-21 11:14:00,76.4,67.1,30.15,NNE,21,0.0,2.0,73,0.00,,---,0.00,789.00,VWS V14.01,2013-06-21 15:14:00,
2013-06-21 11:19:00,77.0,67.3,30.15,NNW,340,0.0,3.0,72,0.00,,---,0.00,780.00,VWS V14.01,2013-06-21 15:19:00,
2013-06-21 11:24:00,77.3,67.2,30.15,North,355,0.0,4.0,71,0.00,,---,0.00,798.00,VWS V14.01,2013-06-21 15:24:00,
2013-06-21 11:29:00,77.6,67.1,30.15,North,5,0.0,2.0,70,0.00,,---,0.00,819.00,VWS V14.01,2013-06-21 15:29:00,
2013-06-21 11:34:00,77.6,67.1,30.15,NNE,13,2.0,2.0,70,0.00,,---,0.00,828.00,VWS V14.01,2013-06-21 15:34:00,
2013-06-21 11:39:00,77.7,67.6,30.15,NE,51,1.0,4.0,71,0.00,,---,0.00,847.00,VWS V14.01,2013-06-21 15:39:00,
2013-06-21 11:44:00,77.8,67.2,30.15,NE,42,2.0,4.0,70,0.00,,---,0.00,879.00,VWS V14.01,2013-06-21 15:44:00,
2013-06-21 11:50:00,77.9,67.3,30.15,NNE,15,0.0,1.0,70,0.00,,---,0.00,896.00,VWS V14.01,2013-06-21 15:50:00,
2013-06-21 11:55:00,78.0,67.8,30.16,North,5,0.0,4.0,71,0.00,,---,0.00,749.00,VWS V14.01,2013-06-21 15:55:00,
2013-06-21 12:00:00,78.4,69.8,30.15,NNE,12,0.0,1.0,75,0.00,,---,0.00,963.00,VWS V14.01,2013-06-21 16:00:00,
2013-06-21 12:05:00,78.8,67.4,30.15,North,10,0.0,1.0,68,0.00,,---,0.00,387.00,VWS V14.01,2013-06-21 16:05:00,
2013-06-21 12:10:00,78.7,67.7,30.16,North,10,0.0,0.0,69,0.00,,---,0.00,397.00,VWS V14.01,2013-06-21 16:10:00,
2013-06-21 12:15:00,78.5,66.6,30.16,North,10,0.0,1.0,67,0.00,,---,0.00,211.00,VWS V14.01,2013-06-21 16:15:00,
2013-06-21 12:20:00,78.2,67.2,30.15,North,10,0.0,1.0,69,0.00,,---,0.00,281.00,VWS V14.01,2013-06-21 16:20:00,
2013-06-21 12:25:00,78.3,68.1,30.15,North,10,0.0,1.0,71,0.00,,---,0.00,979.00,VWS V14.01,2013-06-21 16:25:00,
2013-06-21 12:30:00,78.9,67.4,30.15,North,10,0.0,1.0,68,0.00,,---,0.00,983.00,VWS V14.01,2013-06-21 16:30:00,
2013-06-21 12:36:00,79.7,66.9,30.16,North,10,0.0,1.0,65,0.00,,---,0.00,1018.00,VWS V14.01,2013-06-21 16:36:00,
2013-06-21 12:41:00,80.2,67.8,30.16,WSW,253,0.0,3.0,66,0.00,,---,0.00,1072.00,VWS V14.01,2013-06-21 16:41:00,
2013-06-21 12:46:00,80.2,68.3,30.15,WSW,253,0.0,3.0,67,0.00,,---,0.00,1034.00,VWS V14.01,2013-06-21 16:46:00,
2013-06-21 12:51:00,80.7,69.2,30.15,West,261,0.0,1.0,68,0.00,,---,0.00,501.00,VWS V14.01,2013-06-21 16:51:00,
2013-06-21 12:56:00,81.1,68.2,30.15,West,267,0.0,2.0,65,0.00,,---,0.00,1023.00,VWS V14.01,2013-06-21 16:56:00,
2013-06-21 13:02:00,81.4,70.3,30.15,West,267,0.0,1.0,69,0.00,,---,0.00,1063.00,VWS V14.01,2013-06-21 17:02:00,
2013-06-21 13:08:00,82.0,69.5,30.15,NE,37,0.0,2.0,66,0.00,,---,0.00,1078.00,VWS V14.01,2013-06-21 17:08:00,
2013-06-21 13:14:00,82.3,67.5,30.15,NNW,337,0.0,4.0,61,0.00,,---,0.00,1120.00,VWS V14.01,2013-06-21 17:14:00,
2013-06-21 13:19:00,82.3,68.5,30.15,NNW,337,1.0,2.0,63,0.00,,---,0.00,1167.00,VWS V14.01,2013-06-21 17:19:00,
2013-06-21 13:24:00,82.4,68.1,30.15,NNW,337,0.0,2.0,62,0.00,,---,0.00,320.00,VWS V14.01,2013-06-21 17:24:00,
2013-06-21 13:29:00,82.1,67.3,30.15,WNW,291,1.0,2.0,61,0.00,,---,0.00,694.00,VWS V14.01,2013-06-21 17:29:00,
2013-06-21 13:35:00,81.5,68.2,30.15,WNW,302,0.0,2.0,64,0.00,,---,0.00,278.00,VWS V14.01,2013-06-21 17:35:00,
2013-06-21 13:41:00,81.3,68.0,30.14,WNW,302,0.0,0.0,64,0.00,,---,0.00,325.00,VWS V14.01,2013-06-21 17:41:00,
2013-06-21 13:46:00,81.3,67.5,30.14,WNW,299,0.0,1.0,63,0.00,,---,0.00,1109.00,VWS V14.01,2013-06-21 17:46:00,
2013-06-21 13:47:00,81.3,66.6,30.14,WNW,299,1.0,1.0,61,0.00,,---,0.00,1102.00,VWS V14.01,2013-06-21 17:47:00,
2013-06-21 13:52:00,81.4,67.6,30.14,West,273,0.0,3.0,63,0.00,,---,0.00,1071.00,VWS V14.01,2013-06-21 17:52:00,
2013-06-21 13:54:00,81.6,68.7,30.14,WSW,244,0.0,3.0,65,0.00,,---,0.00,1093.00,VWS V14.01,2013-06-21 17:54:00,
2013-06-21 13:59:00,81.8,68.4,30.13,NNE,24,2.0,2.0,64,0.00,,---,0.00,1099.00,VWS V14.01,2013-06-21 17:59:00,
2013-06-21 14:04:00,82.2,69.7,30.13,NNE,32,0.0,3.0,66,0.00,,---,0.00,1097.00,VWS V14.01,2013-06-21 18:04:00,
2013-06-21 14:10:00,82.4,68.6,30.13,NNE,32,0.0,1.0,63,0.00,,---,0.00,1090.00,VWS V14.01,2013-06-21 18:10:00,
2013-06-21 14:15:00,82.8,70.3,30.12,NE,49,2.0,3.0,66,0.00,,---,0.00,1078.00,VWS V14.01,2013-06-21 18:15:00,
2013-06-21 14:20:00,82.9,68.6,30.12,NE,43,0.0,0.0,62,0.00,,---,0.00,1072.00,VWS V14.01,2013-06-21 18:20:00,
2013-06-21 14:23:00,83.1,69.7,30.12,NE,52,1.0,1.0,64,0.00,,---,0.00,1074.00,VWS V14.01,2013-06-21 18:23:00,
2013-06-21 14:24:00,83.1,70.6,30.12,NE,41,3.0,3.0,66,0.00,,---,0.00,1076.00,VWS V14.01,2013-06-21 18:24:00,
2013-06-21 14:25:00,83.1,69.2,30.12,NNE,31,0.0,4.0,63,0.00,,---,0.00,1063.00,VWS V14.01,2013-06-21 18:25:00,
2013-06-21 14:30:00,83.5,68.7,30.12,SW,221,0.0,1.0,61,0.00,,---,0.00,1099.00,VWS V14.01,2013-06-21 18:30:00,
2013-06-21 14:35:00,83.9,70.4,30.12,SW,221,0.0,1.0,64,0.00,,---,0.00,865.00,VWS V14.01,2013-06-21 18:35:00,
2013-06-21 14:40:00,84.0,67.1,30.12,SW,221,0.0,0.0,57,0.00,,---,0.00,315.00,VWS V14.01,2013-06-21 18:40:00,
2013-06-21 14:45:00,84.1,71.5,30.12,SW,221,1.0,1.0,66,0.00,,---,0.00,1062.00,VWS V14.01,2013-06-21 18:45:00,
2013-06-21 14:46:00,84.1,72.0,30.12,SW,234,0.0,1.0,67,0.00,,---,0.00,1106.00,VWS V14.01,2013-06-21 18:46:00,
2013-06-21 14:49:00,84.4,70.9,30.12,NNE,24,2.0,3.0,64,0.00,,---,0.00,1083.00,VWS V14.01,2013-06-21 18:49:00,
2013-06-21 14:51:00,84.4,70.9,30.11,NNE,24,0.0,3.0,64,0.00,,---,0.00,1065.00,VWS V14.01,2013-06-21 18:51:00,
2013-06-21 14:56:00,84.8,69.9,30.11,NNE,24,0.0,3.0,61,0.00,,---,0.00,960.00,VWS V14.01,2013-06-21 18:56:00,
2013-06-21 15:01:00,84.9,70.0,30.11,NE,46,0.0,3.0,61,0.00,,---,0.00,327.00,VWS V14.01,2013-06-21 19:01:00,
2013-06-21 15:06:00,84.1,67.7,30.11,East,88,1.0,4.0,58,0.00,,---,0.00,990.00,VWS V14.01,2013-06-21 19:06:00,
2013-06-21 15:12:00,83.9,71.3,30.11,NE,37,0.0,3.0,66,0.00,,---,0.00,997.00,VWS V14.01,2013-06-21 19:12:00,
2013-06-21 15:17:00,84.2,70.2,30.12,NE,37,0.0,3.0,63,0.00,,---,0.00,1055.00,VWS V14.01,2013-06-21 19:17:00,
2013-06-21 15:21:00,84.3,68.4,30.11,NE,36,0.0,2.0,59,0.00,,---,0.00,1069.00,VWS V14.01,2013-06-21 19:21:00,
2013-06-21 15:26:00,84.6,70.2,30.11,NE,36,0.0,2.0,62,0.00,,---,0.00,1051.00,VWS V14.01,2013-06-21 19:26:00,
2013-06-21 15:31:00,85.3,69.8,30.11,NE,36,0.0,1.0,60,0.00,,---,0.00,1002.00,VWS V14.01,2013-06-21 19:31:00,
2013-06-21 15:37:00,85.9,69.4,30.11,NE,48,1.0,2.0,58,0.00,,---,0.00,991.00,VWS V14.01,2013-06-21 19:37:00,
2013-06-21 15:42:00,85.8,69.3,30.10,NE,40,0.0,1.0,58,0.00,,---,0.00,990.00,VWS V14.01,2013-06-21 19:42:00,
2013-06-21 15:47:00,85.0,68.6,30.10,WNW,295,0.0,3.0,58,0.00,,---,0.00,984.00,VWS V14.01,2013-06-21 19:47:00,
2013-06-21 15:48:00,84.9,68.0,30.10,WNW,295,0.0,3.0,57,0.00,,---,0.00,970.00,VWS V14.01,2013-06-21 19:48:00,
2013-06-21 15:53:00,85.1,69.7,30.10,NE,40,1.0,2.0,60,0.00,,---,0.00,988.00,VWS V14.01,2013-06-21 19:53:00,
2013-06-21 15:58:00,85.1,67.7,30.10,NE,40,0.0,2.0,56,0.00,,---,0.00,928.00,VWS V14.01,2013-06-21 19:58:00,
2013-06-21 16:03:00,85.2,68.3,30.10,WNW,299,1.0,3.0,57,0.00,,---,0.00,940.00,VWS V14.01,2013-06-21 20:03:00,
2013-06-21 16:04:00,85.2,68.3,30.10,NW,304,1.0,3.0,57,0.00,,---,0.00,940.00,VWS V14.01,2013-06-21 20:04:00,
2013-06-21 16:09:00,85.0,68.1,30.10,WSW,256,0.0,1.0,57,0.00,,---,0.00,918.00,VWS V14.01,2013-06-21 20:09:00,
2013-06-21 16:11:00,85.0,68.1,30.10,WSW,256,0.0,1.0,57,0.00,,---,0.00,925.00,VWS V14.01,2013-06-21 20:11:00,
2013-06-21 16:16:00,85.4,67.9,30.09,WSW,257,0.0,1.0,56,0.00,,---,0.00,916.00,VWS V14.01,2013-06-21 20:16:00,
2013-06-21 16:17:00,85.5,67.5,30.09,WSW,253,1.0,1.0,55,0.00,,---,0.00,919.00,VWS V14.01,2013-06-21 20:17:00,
2013-06-21 16:22:00,85.8,67.8,30.09,West,265,0.0,1.0,55,0.00,,---,0.00,919.00,VWS V14.01,2013-06-21 20:22:00,
2013-06-21 16:27:00,86.3,69.3,30.09,NNE,30,0.0,2.0,57,0.00,,---,0.00,882.00,VWS V14.01,2013-06-21 20:27:00,
2013-06-21 16:32:00,86.6,68.0,30.09,NNE,31,0.0,1.0,54,0.00,,---,0.00,853.00,VWS V14.01,2013-06-21 20:32:00,
2013-06-21 16:37:00,86.6,66.9,30.09,NE,34,0.0,1.0,52,0.00,,---,0.00,244.00,VWS V14.01,2013-06-21 20:37:00,
2013-06-21 16:42:00,86.4,66.7,30.09,NE,34,1.0,1.0,52,0.00,,---,0.00,867.00,VWS V14.01,2013-06-21 20:42:00,
2013-06-21 16:47:00,86.1,70.6,30.08,ENE,61,0.0,2.0,60,0.00,,---,0.00,287.00,VWS V14.01,2013-06-21 20:47:00,
2013-06-21 16:52:00,86.2,69.2,30.08,NE,55,0.0,2.0,57,0.00,,---,0.00,814.00,VWS V14.01,2013-06-21 20:52:00,
2013-06-21 16:57:00,86.2,68.7,30.08,NE,53,0.0,2.0,56,0.00,,---,0.00,795.00,VWS V14.01,2013-06-21 20:57:00,
2013-06-21 17:02:00,85.7,71.2,30.08,NE,50,1.0,2.0,62,0.00,,---,0.00,763.00,VWS V14.01,2013-06-21 21:02:00,
2013-06-21 17:05:00,85.7,70.7,30.08,NE,42,0.0,2.0,61,0.00,,---,0.00,726.00,VWS V14.01,2013-06-21 21:05:00,
2013-06-21 17:10:00,85.7,71.7,30.08,West,264,0.0,3.0,63,0.00,,---,0.00,701.00,VWS V14.01,2013-06-21 21:10:00,
2013-06-21 17:15:00,85.7,70.7,30.08,WNW,302,0.0,3.0,61,0.00,,---,0.00,686.00,VWS V14.01,2013-06-21 21:15:00,
2013-06-21 17:20:00,85.4,69.9,30.08,WSW,246,0.0,1.0,60,0.00,,---,0.00,656.00,VWS V14.01,2013-06-21 21:20:00,
2013-06-21 17:25:00,85.0,71.0,30.08,South,182,1.0,3.0,63,0.00,,---,0.00,645.00,VWS V14.01,2013-06-21 21:25:00,
2013-06-21 17:30:00,85.0,71.0,30.08,South,188,2.0,3.0,63,0.00,,---,0.00,647.00,VWS V14.01,2013-06-21 21:30:00,
2013-06-21 17:36:00,85.1,71.1,30.07,South,188,1.0,3.0,63,0.00,,---,0.00,654.00,VWS V14.01,2013-06-21 21:36:00,
2013-06-21 17:41:00,85.1,68.7,30.07,South,188,1.0,2.0,58,0.00,,---,0.00,615.00,VWS V14.01,2013-06-21 21:41:00,
2013-06-21 17:46:00,85.1,70.6,30.07,South,188,1.0,2.0,62,0.00,,---,0.00,592.00,VWS V14.01,2013-06-21 21:46:00,
2013-06-21 17:51:00,85.2,69.8,30.07,South,188,0.0,1.0,60,0.00,,---,0.00,550.00,VWS V14.01,2013-06-21 21:51:00,
2013-06-21 17:56:00,85.4,69.4,30.07,South,188,0.0,1.0,59,0.00,,---,0.00,554.00,VWS V14.01,2013-06-21 21:56:00,
2013-06-21 18:01:00,85.5,67.5,30.06,South,188,2.0,2.0,55,0.00,,---,0.00,531.00,VWS V14.01,2013-06-21 22:01:00,
2013-06-21 18:06:00,85.3,70.3,30.06,WNW,286,0.0,2.0,61,0.00,,---,0.00,519.00,VWS V14.01,2013-06-21 22:06:00,
2013-06-21 18:11:00,85.0,70.1,30.06,WNW,286,0.0,1.0,61,0.00,,---,0.00,501.00,VWS V14.01,2013-06-21 22:11:00,
2013-06-21 18:16:00,84.8,71.3,30.06,WNW,285,0.0,1.0,64,0.00,,---,0.00,487.00,VWS V14.01,2013-06-21 22:16:00,
2013-06-21 18:21:00,85.0,68.1,30.06,WNW,285,0.0,1.0,57,0.00,,---,0.00,464.00,VWS V14.01,2013-06-21 22:21:00,
2013-06-21 18:26:00,85.3,71.3,30.06,WNW,285,0.0,1.0,63,0.00,,---,0.00,441.00,VWS V14.01,2013-06-21 22:26:00,
2013-06-21 18:32:00,85.2,68.8,30.06,WNW,285,0.0,1.0,58,0.00,,---,0.00,425.00,VWS V14.01,2013-06-21 22:32:00,
2013-06-21 18:37:00,85.3,67.8,30.06,West,281,1.0,2.0,56,0.00,,---,0.00,408.00,VWS V14.01,2013-06-21 22:37:00,
2013-06-21 18:42:00,85.0,66.5,30.06,West,281,0.0,0.0,54,0.00,,---,0.00,381.00,VWS V14.01,2013-06-21 22:42:00,
2013-06-21 18:47:00,85.0,69.6,30.06,West,281,0.0,1.0,60,0.00,,---,0.00,366.00,VWS V14.01,2013-06-21 22:47:00,
2013-06-21 18:52:00,85.2,70.7,30.06,West,281,0.0,1.0,62,0.00,,---,0.00,329.00,VWS V14.01,2013-06-21 22:52:00,
2013-06-21 18:57:00,85.3,70.8,30.06,West,281,0.0,1.0,62,0.00,,---,0.00,95.00,VWS V14.01,2013-06-21 22:57:00,
2013-06-21 19:02:00,84.9,69.5,30.06,West,281,0.0,0.0,60,0.00,,---,0.00,299.00,VWS V14.01,2013-06-21 23:02:00,
2013-06-21 19:07:00,84.7,70.2,30.06,West,280,0.0,2.0,62,0.00,,---,0.00,295.00,VWS V14.01,2013-06-21 23:07:00,
2013-06-21 19:12:00,84.2,69.8,30.06,West,279,0.0,1.0,62,0.00,,---,0.00,269.00,VWS V14.01,2013-06-21 23:12:00,
2013-06-21 19:17:00,83.8,69.4,30.06,WSW,247,1.0,4.0,62,0.00,,---,0.00,251.00,VWS V14.01,2013-06-21 23:17:00,
2013-06-21 19:22:00,83.3,69.9,30.06,WSW,241,0.0,2.0,64,0.00,,---,0.00,230.00,VWS V14.01,2013-06-21 23:22:00,
2013-06-21 19:28:00,83.1,70.1,30.06,WSW,244,0.0,2.0,65,0.00,,---,0.00,204.00,VWS V14.01,2013-06-21 23:28:00,
2013-06-21 19:33:00,82.9,70.4,30.06,WSW,244,0.0,1.0,66,0.00,,---,0.00,185.00,VWS V14.01,2013-06-21 23:33:00,
2013-06-21 19:38:00,82.5,70.4,30.06,WSW,244,0.0,1.0,67,0.00,,---,0.00,160.00,VWS V14.01,2013-06-21 23:38:00,
2013-06-21 19:43:00,82.3,70.7,30.06,WSW,244,0.0,1.0,68,0.00,,---,0.00,139.00,VWS V14.01,2013-06-21 23:43:00,
2013-06-21 19:48:00,81.8,69.8,30.06,WSW,244,0.0,1.0,67,0.00,,---,0.00,135.00,VWS V14.01,2013-06-21 23:48:00,
2013-06-21 19:53:00,81.7,70.6,30.06,WSW,244,0.0,0.0,69,0.00,,---,0.00,120.00,VWS V14.01,2013-06-21 23:53:00,
2013-06-21 19:58:00,81.6,70.0,30.06,WSW,244,0.0,0.0,68,0.00,,---,0.00,72.00,VWS V14.01,2013-06-21 23:58:00,
2013-06-21 20:03:00,81.3,70.6,30.06,WSW,244,0.0,0.0,70,0.00,,---,0.00,77.00,VWS V14.01,2013-06-22 00:03:00,
2013-06-21 20:08:00,80.9,71.0,30.06,WSW,244,0.0,0.0,72,0.00,,---,0.00,70.00,VWS V14.01,2013-06-22 00:08:00,
2013-06-21 20:13:00,80.5,71.8,30.06,WSW,244,0.0,0.0,75,0.00,,---,0.00,62.00,VWS V14.01,2013-06-22 00:13:00,
2013-06-21 20:19:00,80.3,71.7,30.06,WSW,244,0.0,0.0,75,0.00,,---,0.00,53.00,VWS V14.01,2013-06-22 00:19:00,
2013-06-21 20:24:00,79.8,71.6,30.06,WSW,244,0.0,0.0,76,0.00,,---,0.00,47.00,VWS V14.01,2013-06-22 00:24:00,
2013-06-21 20:29:00,79.5,70.9,30.06,WSW,244,0.0,0.0,75,0.00,,---,0.00,39.00,VWS V14.01,2013-06-22 00:29:00,
2013-06-21 20:34:00,79.0,70.8,30.06,WSW,244,0.0,0.0,76,0.00,,---,0.00,33.00,VWS V14.01,2013-06-22 00:34:00,
2013-06-21 20:39:00,78.6,69.6,30.06,WSW,244,0.0,0.0,74,0.00,,---,0.00,33.00,VWS V14.01,2013-06-22 00:39:00,
2013-06-21 20:44:00,78.2,70.0,30.06,WSW,244,0.0,0.0,76,0.00,,---,0.00,28.00,VWS V14.01,2013-06-22 00:44:00,
2013-06-21 20:49:00,77.9,69.7,30.07,WSW,244,0.0,0.0,76,0.00,,---,0.00,9.00,VWS V14.01,2013-06-22 00:49:00,
2013-06-21 20:54:00,77.6,69.1,30.07,WSW,244,0.0,0.0,75,0.00,,---,0.00,0.00,VWS V14.01,2013-06-22 00:54:00,
2013-06-21 20:59:00,77.3,69.2,30.07,WSW,244,0.0,1.0,76,0.00,,---,0.00,0.00,VWS V14.01,2013-06-22 00:59:00,
2013-06-21 21:04:00,76.7,67.0,30.07,WNW,285,0.0,5.0,72,0.00,,---,0.00,0.00,VWS V14.01,2013-06-22 01:04:00,
2013-06-21 21:09:00,75.4,67.7,30.07,NE,51,4.0,4.0,77,0.01,,---,0.01,0.00,VWS V14.01,2013-06-22 01:09:00,
2013-06-21 21:15:00,73.2,66.7,30.09,NE,45,4.0,6.0,80,0.09,,---,0.09,0.00,VWS V14.01,2013-06-22 01:15:00,
2013-06-21 21:20:00,70.7,64.9,30.09,NE,49,0.0,1.0,82,0.17,,---,0.17,0.00,VWS V14.01,2013-06-22 01:20:00,
2013-06-21 21:25:00,69.1,64.1,30.09,WNW,288,0.0,2.0,84,0.19,,---,0.19,0.00,VWS V14.01,2013-06-22 01:25:00,
2013-06-21 21:30:00,68.1,64.4,30.09,WSW,254,0.0,2.0,88,0.22,,---,0.22,0.00,VWS V14.01,2013-06-22 01:30:00,
2013-06-21 21:35:00,67.5,64.5,30.09,WSW,246,2.0,2.0,90,0.24,,---,0.24,0.00,VWS V14.01,2013-06-22 01:35:00,
2013-06-21 21:40:00,66.8,64.1,30.08,SW,222,0.0,3.0,91,0.25,,---,0.25,0.00,VWS V14.01,2013-06-22 01:40:00,
2013-06-21 21:45:00,66.2,63.8,30.08,SW,229,0.0,3.0,92,0.25,,---,0.25,0.00,VWS V14.01,2013-06-22 01:45:00,
2013-06-21 21:50:00,66.0,63.9,30.08,South,174,1.0,2.0,93,0.25,,---,0.25,0.00,VWS V14.01,2013-06-22 01:50:00,
2013-06-21 21:55:00,66.0,64.2,30.08,South,176,0.0,2.0,94,0.25,,---,0.25,0.00,VWS V14.01,2013-06-22 01:55:00,
2013-06-21 22:00:00,66.1,64.3,30.09,South,176,0.0,0.0,94,0.25,,---,0.25,0.00,VWS V14.01,2013-06-22 02:00:00,
2013-06-21 22:06:00,66.1,64.3,30.09,South,176,0.0,0.0,94,0.25,,---,0.25,0.00,VWS V14.01,2013-06-22 02:06:00,
2013-06-21 22:11:00,66.2,64.7,30.09,South,176,0.0,1.0,95,0.25,,---,0.25,0.00,VWS V14.01,2013-06-22 02:11:00,
2013-06-21 22:16:00,66.1,64.6,30.09,South,176,0.0,1.0,95,0.26,,---,0.26,0.00,VWS V14.01,2013-06-22 02:16:00,
2013-06-21 22:21:00,66.1,64.6,30.10,South,176,0.0,0.0,95,0.10,,---,0.26,0.00,VWS V14.01,2013-06-22 02:21:00,
2013-06-21 22:26:00,65.9,64.4,30.11,South,176,0.0,0.0,95,0.10,,---,0.26,0.00,VWS V14.01,2013-06-22 02:26:00,
2013-06-21 22:31:00,66.0,64.5,30.12,South,176,0.0,0.0,95,0.05,,---,0.26,0.00,VWS V14.01,2013-06-22 02:31:00,
2013-06-21 22:36:00,66.0,64.5,30.12,South,176,0.0,0.0,95,0.05,,---,0.26,0.00,VWS V14.01,2013-06-22 02:36:00,
2013-06-21 22:41:00,66.0,64.5,30.12,South,176,0.0,0.0,95,0.01,,---,0.26,0.00,VWS V14.01,2013-06-22 02:41:00,
2013-06-21 22:46:00,66.0,64.5,30.12,South,176,0.0,0.0,95,0.01,,---,0.26,0.00,VWS V14.01,2013-06-22 02:46:00,
2013-06-21 22:52:00,66.0,64.5,30.12,South,176,0.0,0.0,95,0.01,,---,0.26,0.00,VWS V14.01,2013-06-22 02:52:00,
2013-06-21 22:57:00,65.9,64.4,30.12,South,176,0.0,0.0,95,0.01,,---,0.26,0.00,VWS V14.01,2013-06-22 02:57:00,
2013-06-21 23:02:00,65.9,64.4,30.12,South,176,0.0,1.0,95,0.01,,---,0.26,0.00,VWS V14.01,2013-06-22 03:02:00,
2013-06-21 23:07:00,65.7,64.2,30.12,South,176,0.0,1.0,95,0.01,,---,0.26,0.00,VWS V14.01,2013-06-22 03:07:00,
2013-06-21 23:12:00,65.6,64.4,30.12,South,176,0.0,0.0,96,0.01,,---,0.26,0.00,VWS V14.01,2013-06-22 03:12:00,
2013-06-21 23:17:00,65.6,64.1,30.12,South,176,0.0,0.0,95,0.01,,---,0.26,0.00,VWS V14.01,2013-06-22 03:17:00,
2013-06-21 23:22:00,65.5,64.3,30.12,South,176,0.0,0.0,96,0.00,,---,0.26,0.00,VWS V14.01,2013-06-22 03:22:00,
2013-06-21 23:27:00,65.5,64.3,30.12,South,176,0.0,0.0,96,0.00,,---,0.26,0.00,VWS V14.01,2013-06-22 03:27:00,
2013-06-21 23:32:00,65.4,64.2,30.12,South,176,0.0,0.0,96,0.00,,---,0.26,0.00,VWS V14.01,2013-06-22 03:32:00,
2013-06-21 23:37:00,65.4,64.2,30.12,South,176,0.0,0.0,96,0.00,,---,0.26,0.00,VWS V14.01,2013-06-22 03:37:00,
2013-06-21 23:42:00,65.4,64.2,30.12,South,176,0.0,0.0,96,0.00,,---,0.26,0.00,VWS V14.01,2013-06-22 03:42:00,
2013-06-21 23:48:00,65.3,64.1,30.12,South,176,0.0,0.0,96,0.00,,---,0.26,0.00,VWS V14.01,2013-06-22 03:48:00,
2013-06-21 23:53:00,65.3,64.1,30.13,South,176,0.0,0.0,96,0.00,,---,0.26,0.00,VWS V14.01,2013-06-22 03:53:00,
2013-06-21 23:58:00,65.2,64.0,30.13,South,176,0.0,0.0,96,0.00,,---,0.26,0.00,VWS V14.01,2013-06-22 03:58:00,